{"data":{"norad_id":45389,"intl_designator":"2020-019AF","name":"STARLINK-1283","alt_names":[],"object_type":"PAYLOAD","status":"ACTIVE","operator":null,"country":"US","launch_date":"2020-03-18","launch_site_code":"AFETR","launch_vehicle":null,"mission":null,"orbit_class":"UNKNOWN","rcs_meters":null,"size_class":null,"mass_kg":null,"dimensions":null,"purposes":["comms"],"wikipedia_slug":null,"has_3d_model":false,"image_url":null,"decayed_at":null,"tle_current":{"epoch":"2026-09-20T06:00:02.000160Z","epoch_age_seconds":36082,"freshness":"FRESH","line1":"1 45389U 20019AF  26263.25002315  .00167555  21248-4  56557-3 0  9999","line2":"2 45389  53.0261 223.4901 0005333  79.3200 170.6963 15.89683796  6015","mean_motion":15.89683796,"eccentricity":0.0005333,"inclination_deg":53.0261,"raan_deg":223.4901,"arg_perigee_deg":79.32,"mean_anomaly_deg":170.6963,"bstar":0.00056557,"rev_number":601,"period_min":90.584052226195,"perigee_km":299.60555829495,"apogee_km":306.7318389531,"semimajor_km":6681.305698624,"source":"CELESTRAK","updated_at":"2026-09-20T09:00:38.232735Z"}}}